This is the latest recevied weather packets stored in our database for station/object AI5KP-13. If no packets are shown the sender has not sent any weather packets the latest 10 day(s).
| Time | Temp. | Humidity | Pressure | Rain* | Wind** | Luminosity | Snow |
|---|---|---|---|---|---|---|---|
| 1777924036 | 25° C | 50% | 1007.7 hPa | 0 mm | - | 614 W/m² | - |
| 1777923732 | 25° C | 52% | 1007.7 hPa | 0 mm | - | 629 W/m² | - |
| 1777923428 | 24.44° C | 53% | 1007.4 hPa | 0 mm | - | 616 W/m² | - |
| 1777923126 | 25° C | 54% | 1007.9 hPa | 0 mm | - | 611 W/m² | - |
| 1777922824 | 24.44° C | 52% | 1007.8 hPa | 0 mm | - | 624 W/m² | - |
| 1777922521 | 25° C | 53% | 1008.1 hPa | 0 mm | - | 654 W/m² | - |
| 1777922220 | 24.44° C | 54% | 1008 hPa | 0 mm | - | 614 W/m² | - |
| 1777921916 | 25° C | 53% | 1008.2 hPa | 0 mm | - | 699 W/m² | - |
| 1777921612 | 24.44° C | 53% | 1008.2 hPa | 0 mm | - | 699 W/m² | - |
| 1777921309 | 24.44° C | 52% | 1008 hPa | 0 mm | - | 697 W/m² | - |
| 1777921005 | 25° C | 52% | 1008 hPa | 0 mm | - | 701 W/m² | - |
| 1777920702 | 25° C | 52% | 1008.1 hPa | 0 mm | - | 704 W/m² | - |
| 1777920398 | 24.44° C | 54% | 1008.1 hPa | 0 mm | - | 716 W/m² | - |
| 1777920093 | 24.44° C | 53% | 1008 hPa | 0 mm | - | 720 W/m² | - |
| 1777919790 | 24.44° C | 52% | 1007.9 hPa | 0 mm | - | 722 W/m² | - |
| 1777919488 | 24.44° C | 53% | 1008.2 hPa | 0 mm | - | 725 W/m² | - |
| 1777919185 | 24.44° C | 56% | 1008 hPa | 0 mm | - | 728 W/m² | - |
| 1777918883 | 24.44° C | 55% | 1008.2 hPa | 0 mm | - | 730 W/m² | - |
| 1777918580 | 24.44° C | 57% | 1008.3 hPa | 0 mm | - | 732 W/m² | - |
| 1777918277 | 24.44° C | 53% | 1008.6 hPa | 0 mm | - | 733 W/m² | - |
| 1777917977 | 24.44° C | 54% | 1008.6 hPa | 0 mm | - | 733 W/m² | - |
| 1777917675 | 24.44° C | 58% | 1008.7 hPa | 0 mm | - | 732 W/m² | - |
| 1777917372 | 23.89° C | 56% | 1008.6 hPa | 0 mm | - | 735 W/m² | - |
| 1777917068 | 23.89° C | 55% | 1008.7 hPa | 0 mm | - | 736 W/m² | - |
| 1777916767 | 24.44° C | 57% | 1008.6 hPa | 0 mm | - | 737 W/m² | - |
* Rain latest hour (hover to see other rain measurements)
** Current wind speed in m/s (hover to see current wind gust speed)